User: anonymous   Login
Location: *
(46.4000°N, 12.6667°E)
Time: 13:50:51
(UTC+00:00)
Language:

RESURS DK-1 - Orbit

View from above orbital plane
View from above orbital plane
View from above satellite
View from above satellite

Ground track
Ground track

The orbit data is extracted from the following two-line orbital elements,

1 29228U 06021A   20191.84987160 +.00000020 +00000-0 +88237-5 0  9993
2 29228 069.9356 130.9859 0002208 032.8764 327.2534 15.02549737776111
Epoch (UTC): 09 July 2020 20:23:48
Eccentricity: 0.0002208
inclination: 69.9356°
perigee height: 557 km
apogee height: 560 km
right ascension of ascending node: 130.9859°
argument of perigee: 32.8764°
revolutions per day: 15.02549737
mean anomaly at epoch: 327.2534°
orbit number at epoch: 77611

The dashed part of the orbit path shows where the satellite is in the earth's shadow,  

DLR